This is the latest recevied weather packets stored in our database for station/object DB0GIS-11. If no packets are shown the sender has not sent any weather packets the latest 10 day(s).
| Time | Temp. | Humidity | Pressure | Rain* | Wind** | Luminosity | Snow |
|---|---|---|---|---|---|---|---|
| 1777093650 | 5.56° C | 54% | 1015.4 hPa | 0 mm | - | - | - |
| 1777092457 | 5° C | 56% | 1015.5 hPa | 0 mm | - | - | - |
| 1777091860 | 5° C | 56% | 1015.4 hPa | 0 mm | - | - | - |
| 1777090647 | 5° C | 56% | 1015.3 hPa | 0 mm | - | - | - |
| 1777087053 | 5.56° C | 65% | 1015.3 hPa | 0 mm | - | - | - |
| 1777085251 | 6.11° C | 65% | 1015.3 hPa | 0 mm | - | - | - |
| 1777084648 | 6.67° C | 65% | 1015.4 hPa | 0 mm | - | - | - |
| 1777083471 | 6.67° C | 64% | 1015.5 hPa | 0 mm | - | - | - |
| 1777081051 | 7.78° C | 65% | 1015.6 hPa | 0 mm | - | - | - |
| 1777080444 | 7.78° C | 65% | 1015.5 hPa | 0 mm | - | - | - |
| 1777079296 | 7.78° C | 65% | 1015.6 hPa | 0 mm | - | - | - |
| 1777078058 | 7.78° C | 65% | 1015.7 hPa | 0 mm | - | - | - |
| 1777077454 | 8.33° C | 64% | 1015.7 hPa | 0 mm | - | - | - |
| 1777076847 | 8.33° C | 64% | 1016 hPa | 0 mm | - | - | - |
| 1777073246 | 9.44° C | 61% | 1016.3 hPa | 0 mm | - | - | - |
| 1777072071 | 10° C | 61% | 1016.3 hPa | 0 mm | - | - | - |
| 1777071454 | 10° C | 61% | 1016.4 hPa | 0 mm | - | - | - |
| 1777070244 | 10° C | 61% | 1016.2 hPa | 0 mm | - | - | - |
| 1777069051 | 10.56° C | 61% | 1016.4 hPa | 0 mm | - | - | - |
| 1777067850 | 10.56° C | 60% | 1016.3 hPa | 0 mm | - | - | - |
| 1777067251 | 10.56° C | 59% | 1016.2 hPa | 0 mm | - | - | - |
| 1777066644 | 11.11° C | 58% | 1016.2 hPa | 0 mm | - | - | - |
| 1777065452 | 11.11° C | 57% | 1016.4 hPa | 0 mm | - | - | - |
| 1777064857 | 11.67° C | 57% | 1016.3 hPa | 0 mm | - | - | - |
| 1777061848 | 12.22° C | 55% | 1016.3 hPa | 0 mm | - | - | - |
* Rain latest hour (hover to see other rain measurements)
** Current wind speed in m/s (hover to see current wind gust speed)